Вернуться в каталог

STARLINK-35961

АктивенСвязьVLEO
NORAD 66530·PAYLOAD·🇺🇸 United States

Запущен Nov 19, 2025 с Cape Canaveral Space Force Station

Loading…

Ближайшие Пролёты (ближайшие 24 часа)

TLE

СвежийSource: CelesTrak SupGP

Эпоха: Sep 14, 2026, 23:06 UTC

1 66530C 25265Q   26257.96298611  .00026409  00000+0  95651-3 0  2570
2 66530  43.0007 289.1670 0001402 270.1566 270.1780 15.27566610    18

Отслеживайте STARLINK-35961 в реальном времени с AllMySat

Download on the App Store